Location: Eaton Estates
(41.3089°N, 82.0057°W)
Time: 11:44:21
(UTC+00:00)

Cosmos 1110 Rocket - Pass Details

Date: 17 June 2021
Orbit: 752 x 782 km, 74.0° (Epoch: 30 July)

Event Time Altitude Azimuth Distance (km) Brightness Sun altitude
Exits shadow 03:15:26 11° 207° (SSW) 2,206 6.1 -18.3°
Maximum altitude 03:20:23 69° 291° (WNW) 809 4.2 -18.8°
Drops below altitude 10° 03:25:34 10° 15° (NNE) 2,297 7.1 -19.3°
Sets 03:27:59 0° 18° (NNE) 3,230 7.9 -19.5°
